Regional Weather Roundup
Issued by NWS

Home | Current Version | Previous Version | Graphics & Text | Print | Product List | Glossary On
Versions: 1 2 3 4 5 6 7 8 9 10 11 12 13 14 15 16 17 18 19 20 21 22 23 24 25 26 27 28 29 30 31 32 33 34 35 36 37 38 39 40 41 42 43 44 45 46 47 48 49 50
000
ASUS43 KTOP 020959
RWRKS

WEATHER ROUNDUP FOR KANSAS
NATIONAL WEATHER SERVICE GOODLAND KS
500 AM CDT SUN AUG 02 2015

NOTE:  "FAIR" INDICATES FEW OR NO CLOUDS BELOW 12,000 FEET WITH NO
SIGNIFICANT WEATHER AND/OR OBSTRUCTIONS TO VISIBILITY.

KSZ001>006-013>018-027>032-041>047-021100-
NORTHWEST KANSAS

CITY           SKY/WX    TMP DP  RH WIND       PRES   REMARKS
GOODLAND       PTCLDY    68  65  90 S8        29.99S
HAYS           MOCLDY    70  61  73 S6        29.94F
HILL CITY      PTCLDY    69  66  90 CALM      29.94S
RUSSELL        MOCLDY    71  69  93 S8        29.92S
$$

KSZ061>065-074>080-084>089-021100-
SOUTHWEST KANSAS

CITY           SKY/WX    TMP DP  RH WIND       PRES   REMARKS
DODGE CITY     CLEAR     69  66  90 S9        29.97F
ELKHART          N/A     70  62  76 S8          N/A
GARDEN CITY    PTCLDY    70  67  90 SE7       29.96F
GREAT BEND     PTCLDY    70  66  88 S7        29.94F
LIBERAL        CLOUDY    72  61  68 S10       29.97F
PRATT          CLEAR     70  68  94 S6        29.98R
$$

KSZ066>073-081>083-090>101-021100-
SOUTHEAST KANSAS

CITY           SKY/WX    TMP DP  RH WIND       PRES   REMARKS
CHANUTE        CLEAR     70  65  84 S8        29.96R
COFFEYVILLE    CLEAR     69  65  86 S3        29.95F
HUTCHINSON     PTCLDY    73  68  84 S5        29.95S
MEDICINE LODGE   N/A     72  70  93 SE3       29.95S
NEWTON         PTCLDY    72  63  73 S6        29.98S
PARSONS        CLEAR     67  66  97 CALM      29.97S
WICHITA INTL   PTCLDY    72  67  84 S6        29.94S
WICHITA JABRA  FAIR      73  66  78 S6        29.95S
WINFIELD       PTCLDY    71  68  90 S6        29.96S
$$

KSZ007>012-019>026-033>040-048>060-102>105-021100-
NORTHEAST KANSAS

CITY           SKY/WX    TMP DP  RH WIND       PRES   REMARKS
CONCORDIA      PTCLDY    73  69  87 S12       29.91S
EMPORIA        CLEAR     70  66  87 S8        29.94S
LAWRENCE       PTCLDY    69  66  90 SE3       29.92F
MANHATTAN      PTCLDY    74  70  87 SW8       29.91S
OLATHE IND     PTCLDY    69  67  93 S5        29.94F
OLATHE EXE     PTCLDY    70  67  90 S3        29.93F
SALINA         MOCLDY    74  70  87 S7        29.92S
TOPEKA BILLARD PTCLDY    75  68  78 SW3       29.92S
TOPEKA FORBES  PTCLDY    73  67  81 SW7       29.93S
$$



USA.gov is the U.S. government's official web portal to all federal, state and local government web resources and services.